Preview of NWS' New Version of Forecast
This preview is not operational and should not be used for support decisions.

Regional Weather Roundup (RWR)

Issued by National Weather Service (NWS)

                            
000
ASUS43 KTOP 182059
RWRKS 

WEATHER ROUNDUP FOR KANSAS
NATIONAL WEATHER SERVICE GOODLAND KS
400 PM CDT SUN AUG 18 2019

NOTE:  "FAIR" INDICATES FEW OR NO CLOUDS BELOW 12,000 FEET WITH NO
SIGNIFICANT WEATHER AND/OR OBSTRUCTIONS TO VISIBILITY.

KSZ001>006-013>018-027>032-041>047-182200-
NORTHWEST KANSAS
  
CITY           SKY/WX    TMP DP  RH WIND       PRES   REMARKS
GOODLAND       SUNNY     80  64  58 S7        29.99F                  
HAYS           SUNNY     86  66  51 CALM      30.06F                  
HILL CITY      SUNNY     84  65  52 CALM      29.93F                  
RUSSELL        SUNNY     86  65  49 VRB3      29.89F                  
$$

KSZ061>065-074>080-084>089-182200-
SOUTHWEST KANSAS
  
CITY           SKY/WX    TMP DP  RH WIND       PRES   REMARKS
DODGE CITY     SUNNY     93  65  39 VRB5      29.92F HX  95           
GARDEN CITY    SUNNY     91  63  39 VRB5      29.92F                  
GREAT BEND     SUNNY     88  68  51 CALM      29.89F                  
LIBERAL        SUNNY     94  65  38 E10       29.91F HX  96           
$$

KSZ066>073-081>083-090>101-182200-
SOUTHEAST KANSAS
  
CITY           SKY/WX    TMP DP  RH WIND       PRES   REMARKS
CHANUTE        SUNNY     90  69  50 S7        29.88F                  
COFFEYVILLE    SUNNY     89  73  59 VRB3      29.85F HX  97           
HUTCHINSON     MOSUNNY   90  68  48 CALM      29.87F                  
MEDICINE LODGE   N/A     90  68  48 VRB5      29.85F                  
NEWTON         SUNNY     86  71  60 S3        29.89F                  
PARSONS        SUNNY     88  75  65 CALM      29.89F HX  97           
WICHITA INTL   MOSUNNY   89  71  55 CALM      29.86F HX  95           
WICHITA JABRA  SUNNY     88  71  57 CALM      29.87F                  
WICHITA MCCONL SUNNY     89  67  48 SE6       29.87F                  
WINFIELD       MOSUNNY   89  70  53 SW8       29.87F                  
$$

KSZ007>012-019>026-033>040-048>060-102>105-182200-
NORTHEAST KANSAS
  
CITY           SKY/WX    TMP DP  RH WIND       PRES   REMARKS
CONCORDIA      MOSUNNY   86  71  60 NW9       29.89F                  
EMPORIA        SUNNY     89  69  51 S6        29.87F                  
LAWRENCE       SUNNY     92  68  45 W5        29.85F HX  96           
MANHATTAN      SUNNY     89  67  47 VRB3      29.86F                  
OLATHE IND     SUNNY     86  67  52 MISG      29.88F                  
OLATHE EXE     SUNNY     87  67  51 W7        29.87F                  
SALINA         SUNNY     86  68  54 S6        29.88F                  
TOPEKA BILLARD SUNNY     89  67  47 N6        29.85F                  
TOPEKA FORBES  SUNNY     90  66  45 S5        29.87F                  
$$